TimeEDT,TemperatureF,Dew PointF,Humidity,Sea Level PressureIn,VisibilityMPH,Wind Direction,Wind SpeedMPH,Gust SpeedMPH,PrecipitationIn,Events,Conditions,WindDirDegrees,DateUTC
12:54 AM,50.0,48.9,96,30.04,-9999.0,NNW,15.0,23.0,0.01,,Unknown,340,2013-05-22 04:54:00
1:54 AM,48.9,48.0,97,29.97,-9999.0,ENE,10.4,21.9,0.01,,Unknown,70,2013-05-22 05:54:00
2:54 AM,48.9,48.0,97,29.94,-9999.0,ESE,10.4,20.7,N/A,,Unknown,110,2013-05-22 06:54:00
3:54 AM,50.0,48.0,93,29.99,-9999.0,Calm,Calm,-,N/A,,Unknown,0,2013-05-22 07:54:00
4:54 AM,50.0,48.0,93,29.94,-9999.0,ESE,13.8,-,0.02,,Unknown,110,2013-05-22 08:54:00
5:54 AM,50.0,48.9,96,29.96,-9999.0,South,5.8,-,N/A,,Unknown,170,2013-05-22 09:54:00
6:54 AM,51.1,48.9,92,29.94,-9999.0,South,12.7,-,N/A,,Unknown,170,2013-05-22 10:54:00
7:54 AM,52.0,51.1,97,29.93,-9999.0,SSW,5.8,-,0.01,,Unknown,210,2013-05-22 11:54:00
8:54 AM,54.0,53.1,97,29.95,-9999.0,SW,4.6,-,N/A,,Unknown,230,2013-05-22 12:54:00
9:54 AM,55.9,54.0,93,29.96,-9999.0,West,4.6,-,N/A,,Unknown,260,2013-05-22 13:54:00
10:54 AM,57.9,55.0,90,29.97,-9999.0,WSW,3.5,-,N/A,,Unknown,250,2013-05-22 14:54:00
11:54 AM,62.1,57.0,84,29.97,-9999.0,Calm,Calm,-,N/A,,Unknown,0,2013-05-22 15:54:00
12:54 PM,66.0,59.0,78,29.96,-9999.0,Calm,Calm,-,N/A,,Unknown,0,2013-05-22 16:54:00
1:54 PM,63.0,55.9,78,29.96,-9999.0,NE,8.1,-,N/A,,Unknown,50,2013-05-22 17:54:00
2:54 PM,62.1,55.0,78,29.95,-9999.0,East,9.2,-,N/A,,Unknown,80,2013-05-22 18:54:00
3:54 PM,62.1,55.0,78,29.95,-9999.0,East,9.2,-,N/A,,Unknown,100,2013-05-22 19:54:00
4:54 PM,61.0,55.0,81,29.94,-9999.0,East,10.4,-,N/A,,Unknown,100,2013-05-22 20:54:00
5:54 PM,59.0,54.0,83,29.93,-9999.0,East,9.2,-,N/A,,Unknown,100,2013-05-22 21:54:00
6:54 PM,59.0,54.0,83,29.95,-9999.0,ENE,6.9,-,N/A,,Unknown,70,2013-05-22 22:54:00
7:54 PM,55.9,53.1,90,29.96,-9999.0,East,10.4,-,N/A,,Unknown,80,2013-05-22 23:54:00
8:54 PM,55.0,53.1,93,29.96,-9999.0,ENE,9.2,-,N/A,,Unknown,70,2013-05-23 00:54:00
9:54 PM,54.0,52.0,93,29.97,-9999.0,ENE,8.1,-,N/A,,Unknown,70,2013-05-23 01:54:00
10:54 PM,54.0,52.0,93,29.97,-9999.0,NE,4.6,-,N/A,,Unknown,40,2013-05-23 02:54:00
11:54 PM,54.0,52.0,93,29.96,-9999.0,NE,3.5,-,N/A,,Unknown,50,2013-05-23 03:54:00